START_TIME,STEP,MOV.,M29,t_acc.,H22,t_acc.,H26,t_acc.,H30,t_acc.
1979-07-15 06:00:32.140 ,1,1,0.,24.0,0.,24.0,0.,24.0,0.,24.0
1979-07-15 06:00:56.140 ,2,1,0.,24.0,0.,24.0,0.,24.0,0.,24.0
1979-07-15 06:01:20.140 ,6,1,0.,24.0,0.,24.0,0.,24.0,0.,24.0
1979-07-15 06:01:44.140 ,5,1,0.,24.0,0.,24.0,0.,24.0,0.,24.0
1979-07-15 06:02:08.140 ,1,1,0.,24.0,0.,24.0,0.,24.0,0.,24.0
1979-07-15 06:02:32.140 ,2,1,0.,24.0,0.,24.0,0.,24.0,0.,24.0
1979-07-15 06:02:56.140 ,6,1,0.,24.0,0.,24.0,0.,24.0,0.,24.0
1979-07-15 06:03:20.140 ,5,1,0.,24.0,0.,24.0,0.,24.0,0.,24.0
1979-07-15 06:03:44.140 ,1,1,0.,24.0,0.,24.0,0.,24.0,0.,24.0
1979-07-15 06:04:08.140 ,2,1,0.,24.0,0.,24.0,0.,24.0,0.,24.0
1979-07-15 06:04:32.140 ,6,1,0.,24.0,0.,24.0,0.,24.0,0.,24.0
1979-07-15 06:04:56.140 ,5,1,0.,24.0,0.,24.0,0.,24.0,0.,24.0
1979-07-15 06:05:20.140 ,1,1,0.,24.0,0.,24.0,0.,24.0,0.,24.0
1979-07-15 06:05:44.140 ,0,0,0.,24.0,0.,24.0,0.,24.0,0.,24.0
1979-07-15 06:06:08.140 ,0,0,0.,24.0,0.,24.0,0.,24.0,0.,24.0
1979-07-15 06:06:32.140 ,5,1,0.,24.0,0.,24.0,0.,24.0,0.,24.0
1979-07-15 06:06:56.140 ,5,0,0.,24.0,0.,24.0,0.,24.0,0.,24.0
1979-07-15 06:07:20.140 ,4,1,0.,24.0,0.,24.0,0.,24.0,0.,24.0
1979-07-15 06:07:44.140 ,4,0,0.,24.0,0.,24.0,0.,24.0,0.,24.0
1979-07-15 06:08:08.140 ,3,1,0.,24.0,0.,24.0,0.,24.0,0.,24.0
1979-07-15 06:08:32.140 ,3,0,0.,24.0,0.,24.0,0.,24.0,0.,24.0
1979-07-15 06:08:56.140 ,2,1,0.,24.0,0.,24.0,0.,24.0,0.,24.0
1979-07-15 06:09:20.140 ,2,0,0.,24.0,0.,24.0,0.,24.0,0.,24.0
1979-07-15 06:09:44.140 ,1,1,0.,24.0,0.,24.0,0.,24.0,0.,24.0
1979-07-15 06:10:08.140 ,1,0,0.,24.0,0.,24.0,0.,24.0,0.,24.0
1979-07-15 06:10:32.140 ,0,1,0.,24.0,0.,24.0,0.,24.0,0.,24.0
1979-07-15 06:10:56.140 ,0,0,0.,24.0,0.,24.0,0.,24.0,0.,24.0
1979-07-15 06:11:20.140 ,0,1,0.,24.0,0.,24.0,0.,24.0,0.,24.0
1979-07-15 06:11:44.140 ,0,0,0.,24.0,0.,24.0,0.,24.0,0.,24.0
1979-07-15 06:12:08.140 ,1,1,0.,24.0,0.,24.0,0.,24.0,0.,24.0
1979-07-15 06:12:32.140 ,1,0,0.,24.0,0.,24.0,0.,24.0,0.,24.0
1979-07-15 06:12:56.140 ,2,1,0.,24.0,0.,24.0,0.,24.0,0.,24.0
1979-07-15 06:13:20.140 ,2,0,0.,24.0,0.,24.0,0.,24.0,0.,24.0
1979-07-15 06:13:44.140 ,3,1,0.,24.0,0.,24.0,0.,24.0,0.,24.0
1979-07-15 06:14:08.140 ,3,0,0.,24.0,0.,24.0,0.,24.0,0.,24.0
1979-07-15 06:14:32.140 ,4,1,0.,24.0,0.,24.0,0.,24.0,0.,24.0
1979-07-15 06:14:56.140 ,4,0,0.,24.0,0.,24.0,0.,24.0,0.,24.0
1979-07-15 06:15:20.140 ,5,1,0.,24.0,0.,24.0,0.,24.0,0.,24.0
1979-07-15 06:15:44.140 ,5,0,0.,24.0,0.,24.0,0.,24.0,0.,24.0
1979-07-15 06:16:08.140 ,6,1,0.,24.0,0.,24.0,0.,24.0,0.,24.0
1979-07-15 06:16:32.140 ,6,0,0.,24.0,0.,24.0,0.,24.0,0.,24.0
1979-07-15 06:16:56.140 ,7,1,0.,24.0,0.,24.0,0.,24.0,0.,24.0
1979-07-15 06:17:20.140 ,7,0,0.,24.0,0.,24.0,0.,24.0,0.,24.0
1979-07-15 06:17:44.140 ,7,1,0.,24.0,0.,24.0,0.,24.0,0.,24.0
1979-07-15 06:18:08.140 ,7,0,0.,24.0,0.,24.0,0.,24.0,0.,24.0
1979-07-15 06:18:32.140 ,6,1,0.,24.0,0.,24.0,0.,24.0,0.,24.0
1979-07-15 06:18:56.140 ,6,0,0.,24.0,0.,24.0,0.,24.0,0.,24.0
1979-07-15 06:19:20.140 ,5,1,0.,24.0,0.,24.0,0.,24.0,0.,24.0
1979-07-15 06:19:44.140 ,5,0,0.,24.0,0.,24.0,0.,24.0,0.,24.0
1979-07-15 06:20:08.140 ,4,1,0.,24.0,0.,24.0,0.,24.0,0.,24.0
1979-07-15 06:20:32.140 ,4,0,0.,24.0,0.,24.0,0.,24.0,0.,24.0
1979-07-15 06:20:56.140 ,3,1,0.,24.0,0.,24.0,0.,24.0,0.,24.0
1979-07-15 06:21:20.140 ,3,0,0.,24.0,0.,24.0,0.,24.0,0.,24.0
1979-07-15 06:21:44.140 ,2,1,0.,24.0,0.,24.0,0.,24.0,0.,24.0
1979-07-15 06:22:08.140 ,2,0,0.,24.0,0.,24.0,0.,24.0,0.,24.0
1979-07-15 06:22:32.140 ,1,1,0.,24.0,0.,24.0,0.,24.0,0.,24.0
1979-07-15 06:22:56.140 ,1,0,0.,24.0,0.,24.0,0.,24.0,0.,24.0
1979-07-15 06:23:20.140 ,0,1,0.,24.0,0.,24.0,0.,24.0,0.,24.0
1979-07-15 06:23:44.140 ,0,0,0.,24.0,0.,24.0,0.,24.0,0.,24.0
1979-07-15 06:24:08.140 ,0,1,0.,24.0,0.,24.0,0.,24.0,0.,24.0
1979-07-15 06:24:32.140 ,0,0,0.,24.0,0.,24.0,0.,24.0,0.,24.0
1979-07-15 06:24:56.140 ,1,1,0.,24.0,0.,24.0,0.,24.0,0.,24.0
1979-07-15 06:25:20.140 ,1,0,0.,24.0,0.,24.0,0.,24.0,0.,24.0
1979-07-15 06:25:44.140 ,2,1,0.,24.0,0.,24.0,0.,24.0,0.,24.0
1979-07-15 06:26:08.140 ,2,0,0.,24.0,0.,24.0,0.,24.0,0.,24.0
1979-07-15 06:26:32.140 ,3,1,0.,24.0,0.,24.0,0.,24.0,0.,24.0
1979-07-15 06:26:56.140 ,3,0,0.,24.0,0.,24.0,0.,24.0,0.,24.0
1979-07-15 06:27:20.140 ,4,1,0.,24.0,0.,24.0,0.,24.0,0.,24.0
1979-07-15 06:27:44.140 ,4,0,0.,24.0,0.,24.0,0.,24.0,0.,24.0
1979-07-15 06:28:08.140 ,5,1,0.,24.0,0.,24.0,0.,24.0,0.,24.0
1979-07-15 06:28:32.140 ,5,0,0.,24.0,0.,24.0,0.,24.0,0.,24.0
1979-07-15 06:28:56.140 ,6,1,0.,24.0,0.,24.0,0.,24.0,0.,24.0
1979-07-15 06:29:20.140 ,6,0,0.,24.0,0.,24.0,0.,24.0,0.,24.0
1979-07-15 06:29:44.140 ,7,1,0.,24.0,0.,24.0,0.,24.0,0.,24.0
1979-07-15 06:30:08.140 ,7,0,0.,24.0,0.,24.0,0.,24.0,0.,24.0
1979-07-15 06:30:32.140 ,7,1,0.,24.0,0.,24.0,0.,24.0,0.,24.0
1979-07-15 06:30:56.140 ,7,0,0.,24.0,0.,24.0,0.,24.0,0.,24.0
1979-07-15 06:31:20.140 ,6,1,0.,24.0,0.,24.0,0.,24.0,0.,24.0
1979-07-15 06:31:44.140 ,6,0,0.,24.0,0.,24.0,0.,24.0,0.,24.0
1979-07-15 06:32:08.140 ,5,1,0.,24.0,0.,24.0,0.,24.0,0.,24.0
1979-07-15 06:32:32.140 ,5,0,0.,24.0,0.,24.0,0.,24.0,0.,24.0
1979-07-15 06:32:56.140 ,4,1,0.,24.0,0.,24.0,0.,24.0,0.,24.0
1979-07-15 06:33:20.140 ,4,0,0.,24.0,0.,24.0,0.,24.0,0.,24.0
1979-07-15 06:33:44.140 ,3,1,0.,24.0,0.,24.0,0.,24.0,0.,24.0
1979-07-15 06:34:08.140 ,3,0,0.,24.0,0.,24.0,0.,24.0,0.,24.0
1979-07-15 06:34:32.140 ,2,1,0.,24.0,0.,24.0,0.,24.0,0.,24.0
1979-07-15 06:34:56.140 ,2,0,0.,24.0,0.,24.0,0.,24.0,0.,24.0
1979-07-15 06:35:20.140 ,1,1,0.,24.0,0.,24.0,0.,24.0,0.,24.0
1979-07-15 06:35:44.140 ,1,0,0.,24.0,0.,24.0,0.,24.0,0.,24.0
1979-07-15 06:36:08.140 ,0,1,0.,24.0,0.,24.0,0.,24.0,0.,24.0
1979-07-15 06:36:32.140 ,0,0,0.,24.0,0.,24.0,0.,24.0,0.,24.0
1979-07-15 06:36:56.140 ,0,1,0.,24.0,0.,24.0,0.,24.0,0.,24.0
1979-07-15 06:37:20.140 ,0,0,0.,24.0,0.,24.0,0.,24.0,0.,24.0
1979-07-15 06:37:44.140 ,1,1,0.,24.0,0.,24.0,0.,24.0,0.,24.0
1979-07-15 06:38:08.140 ,1,0,0.,24.0,0.,24.0,0.,24.0,0.,24.0
1979-07-15 06:38:32.130 ,2,1,0.,24.0,0.,24.0,0.,24.0,0.,24.0
1979-07-15 06:38:56.130 ,2,0,0.,24.0,0.,24.0,0.,24.0,0.,24.0
1979-07-15 06:39:20.130 ,3,1,0.,24.0,0.,24.0,0.,24.0,0.,24.0
1979-07-15 06:39:44.130 ,3,0,0.,24.0,0.,24.0,0.,24.0,0.,24.0
1979-07-15 06:40:08.130 ,4,1,0.,24.0,0.,24.0,0.,24.0,0.,24.0
1979-07-15 06:40:32.130 ,4,0,0.,24.0,0.,24.0,0.,24.0,0.,24.0
1979-07-15 06:40:56.130 ,5,1,0.,24.0,0.,24.0,0.,24.0,0.,24.0
1979-07-15 06:41:20.130 ,5,0,0.,24.0,0.,24.0,0.,24.0,0.,24.0
1979-07-15 06:41:44.130 ,6,1,0.,24.0,0.,24.0,0.,24.0,0.,24.0
1979-07-15 06:42:08.130 ,6,0,0.,24.0,0.,24.0,0.,24.0,0.,24.0
1979-07-15 06:42:32.130 ,7,0,0.,24.0,0.,24.0,0.,24.0,0.,24.0
1979-07-15 06:42:56.130 ,7,0,0.,24.0,0.,24.0,0.,24.0,0.,24.0
1979-07-15 06:43:20.130 ,5,1,0.,24.0,0.,24.0,0.,24.0,0.,24.0
1979-07-15 06:43:44.130 ,1,1,0.,24.0,0.,24.0,0.,24.0,0.,24.0
1979-07-15 06:44:08.130 ,2,1,0.,24.0,0.,24.0,0.,24.0,0.,24.0
1979-07-15 06:44:32.130 ,6,1,0.,24.0,0.,24.0,0.,24.0,0.,24.0
1979-07-15 06:44:56.130 ,5,1,0.,24.0,0.,24.0,0.,24.0,0.,24.0
1979-07-15 06:45:20.130 ,1,1,0.,24.0,0.,24.0,0.,24.0,0.,24.0
1979-07-15 06:45:44.130 ,2,1,0.,24.0,0.,24.0,0.,24.0,0.,24.0
1979-07-15 06:46:08.130 ,6,1,0.,24.0,0.,24.0,0.,24.0,0.,24.0
1979-07-15 06:46:32.130 ,5,1,0.,24.0,0.,24.0,0.,24.0,0.,24.0
1979-07-15 06:46:56.130 ,1,1,0.,24.0,0.,24.0,0.,24.0,0.,24.0
1979-07-15 06:47:20.130 ,2,1,0.,24.0,0.,24.0,0.,24.0,0.,24.0
1979-07-15 06:47:44.130 ,0,0,,0,,0,,0,,0
1979-07-15 06:47:54.930 ,7,1,,0,,0,,0,,0
1979-07-15 06:48:08.130 ,5,1,0.,24.0,0.,24.0,0.,24.0,0.,24.0
1979-07-15 06:48:32.130 ,1,1,0.,24.0,0.,24.0,0.,24.0,0.,24.0
1979-07-15 06:48:56.130 ,2,1,0.,24.0,0.,24.0,0.,24.0,0.,24.0
1979-07-15 06:49:20.130 ,6,1,0.,24.0,0.,24.0,0.,24.0,0.,24.0
1979-07-15 06:49:44.130 ,5,1,0.,24.0,0.,24.0,0.,24.0,0.,24.0
1979-07-15 06:50:08.130 ,1,1,0.,24.0,0.,24.0,0.,24.0,0.,24.0
1979-07-15 06:50:32.130 ,2,1,0.,24.0,0.,24.0,0.,24.0,0.,24.0
1979-07-15 06:50:56.130 ,6,1,0.,24.0,0.,24.0,0.,24.0,0.,24.0
1979-07-15 06:51:20.130 ,5,1,0.,24.0,0.,24.0,0.,24.0,0.,24.0
1979-07-15 06:51:44.130 ,1,1,0.,24.0,0.,24.0,0.,24.0,0.,24.0
1979-07-15 06:52:08.130 ,2,1,0.,24.0,0.,24.0,0.,24.0,0.,24.0
1979-07-15 06:52:32.130 ,6,1,0.,24.0,0.,24.0,0.,24.0,0.,24.0
1979-07-15 06:52:56.130 ,5,1,0.,24.0,0.,24.0,0.,24.0,0.,24.0
1979-07-15 06:53:20.130 ,1,1,0.,24.0,0.,24.0,0.,24.0,0.,24.0
1979-07-15 06:53:44.130 ,0,0,0.,24.0,0.,24.0,0.,24.0,0.,24.0
1979-07-15 06:54:08.130 ,0,0,0.,24.0,0.,24.0,0.,24.0,0.,24.0
1979-07-15 06:54:32.130 ,5,1,0.,24.0,0.,24.0,0.,24.0,0.,24.0
1979-07-15 06:54:56.130 ,5,0,0.,24.0,0.,24.0,0.,24.0,0.,24.0
1979-07-15 06:55:20.130 ,4,1,0.,24.0,0.,24.0,0.,24.0,0.,24.0
1979-07-15 06:55:44.130 ,4,0,0.,24.0,0.,24.0,0.,24.0,0.,24.0
1979-07-15 06:56:08.130 ,3,1,0.,24.0,0.,24.0,0.,24.0,0.,24.0
1979-07-15 06:56:32.130 ,3,0,0.,24.0,0.,24.0,0.,24.0,0.,24.0
1979-07-15 06:56:56.130 ,2,1,0.,24.0,0.,24.0,0.,24.0,0.,24.0
1979-07-15 06:57:20.130 ,2,0,0.,24.0,0.,24.0,0.,24.0,0.,24.0
1979-07-15 06:57:44.130 ,1,1,0.,24.0,0.,24.0,0.,24.0,0.,24.0
1979-07-15 06:58:08.130 ,1,0,0.,24.0,0.,24.0,0.,24.0,0.,24.0
1979-07-15 06:58:32.130 ,0,1,0.,24.0,0.,24.0,0.,24.0,0.,24.0
1979-07-15 06:58:56.130 ,0,0,0.,24.0,0.,24.0,0.,24.0,0.,24.0
1979-07-15 06:59:20.130 ,0,1,0.,24.0,0.,24.0,0.,24.0,0.,24.0
1979-07-15 06:59:44.130 ,0,0,0.,24.0,0.,24.0,0.,24.0,0.,24.0
1979-07-15 07:00:08.130 ,1,1,0.,24.0,0.,24.0,0.,24.0,0.,24.0
1979-07-15 07:00:32.130 ,1,0,0.,24.0,0.,24.0,0.,24.0,0.,24.0
1979-07-15 07:00:56.130 ,2,1,0.,24.0,0.,24.0,0.,24.0,0.,24.0
1979-07-15 07:01:20.130 ,2,0,0.,24.0,0.,24.0,0.,24.0,0.,24.0
1979-07-15 07:01:44.130 ,3,1,0.,24.0,0.,24.0,0.,24.0,0.,24.0
1979-07-15 07:02:08.130 ,3,0,0.,24.0,0.,24.0,0.,24.0,0.,24.0
1979-07-15 07:02:32.130 ,4,1,0.,24.0,0.,24.0,0.,24.0,0.,24.0
1979-07-15 07:02:56.130 ,4,0,0.,24.0,0.,24.0,0.,24.0,0.,24.0
1979-07-15 07:03:20.130 ,5,1,0.,24.0,0.,24.0,0.,24.0,0.,24.0
1979-07-15 07:03:44.130 ,5,0,0.,24.0,0.,24.0,0.,24.0,0.,24.0
1979-07-15 07:04:08.130 ,6,1,0.,24.0,0.,24.0,0.,24.0,0.,24.0
1979-07-15 07:04:32.130 ,6,0,0.,24.0,0.,24.0,0.,24.0,0.,24.0
1979-07-15 07:04:56.130 ,7,1,0.,24.0,0.,24.0,0.,24.0,0.,24.0
1979-07-15 07:05:20.130 ,7,0,0.,24.0,0.,24.0,0.,24.0,0.,24.0
1979-07-15 07:05:44.130 ,7,1,0.,24.0,0.,24.0,0.,24.0,0.,24.0
1979-07-15 07:06:08.130 ,7,0,0.,24.0,0.,24.0,0.,24.0,0.,24.0
1979-07-15 07:06:32.130 ,6,1,0.,24.0,0.,24.0,0.,24.0,0.,24.0
1979-07-15 07:06:56.130 ,6,0,0.,24.0,0.,24.0,0.,24.0,0.,24.0
1979-07-15 07:07:20.130 ,5,1,0.,24.0,0.,24.0,0.,24.0,0.,24.0
1979-07-15 07:07:44.130 ,5,0,0.,24.0,0.,24.0,0.,24.0,0.,24.0
1979-07-15 07:08:08.130 ,4,1,0.,24.0,0.,24.0,0.,24.0,0.,24.0
1979-07-15 07:08:32.130 ,4,0,0.,24.0,0.,24.0,0.,24.0,0.,24.0
1979-07-15 07:08:56.130 ,3,1,0.,24.0,0.,24.0,0.,24.0,0.,24.0
1979-07-15 07:09:20.130 ,3,0,0.,24.0,0.,24.0,0.,24.0,0.,24.0
1979-07-15 07:09:44.130 ,2,1,0.,24.0,0.,24.0,0.,24.0,0.,24.0
1979-07-15 07:10:08.130 ,2,0,0.,24.0,0.,24.0,0.,24.0,0.,24.0
1979-07-15 07:10:32.130 ,1,1,0.,24.0,0.,24.0,0.,24.0,0.,24.0
1979-07-15 07:10:56.130 ,1,0,0.,24.0,0.,24.0,0.,24.0,0.,24.0
1979-07-15 07:11:20.130 ,0,1,0.,24.0,0.,24.0,0.,24.0,0.,24.0
1979-07-15 07:11:44.130 ,0,0,0.,24.0,0.,24.0,0.,24.0,0.,24.0
1979-07-15 07:12:08.130 ,0,1,0.,24.0,0.,24.0,0.,24.0,0.,24.0
1979-07-15 07:12:32.130 ,0,0,0.,24.0,0.,24.0,0.,24.0,0.,24.0
1979-07-15 07:12:56.130 ,1,1,0.,24.0,0.,24.0,0.,24.0,0.,24.0
1979-07-15 07:13:20.130 ,1,0,0.,24.0,0.,24.0,0.,24.0,0.,24.0
1979-07-15 07:13:44.130 ,2,1,0.,24.0,0.,24.0,0.,24.0,0.,24.0
1979-07-15 07:14:08.130 ,2,0,0.,24.0,0.,24.0,0.,24.0,0.,24.0
1979-07-15 07:14:32.130 ,3,1,0.,24.0,0.,24.0,0.,24.0,0.,24.0
1979-07-15 07:14:56.130 ,3,0,0.,24.0,0.,24.0,0.,24.0,0.,24.0
1979-07-15 07:15:20.130 ,4,1,0.,24.0,0.,24.0,0.,24.0,0.,24.0
1979-07-15 07:15:44.130 ,4,0,0.,24.0,0.,24.0,0.,24.0,0.,24.0
1979-07-15 07:16:08.130 ,5,1,0.,24.0,0.,24.0,0.,24.0,0.,24.0
1979-07-15 07:16:32.130 ,5,0,0.,24.0,0.,24.0,0.,24.0,0.,24.0
1979-07-15 07:16:56.130 ,6,1,0.,24.0,0.,24.0,0.,24.0,0.,24.0
1979-07-15 07:17:20.130 ,6,0,0.,24.0,0.,24.0,0.,24.0,0.,24.0
1979-07-15 07:17:44.130 ,7,1,0.,24.0,0.,24.0,0.,24.0,0.,24.0
1979-07-15 07:18:08.130 ,7,0,0.,24.0,0.,24.0,0.,24.0,0.,24.0
1979-07-15 07:18:32.130 ,7,1,0.,24.0,0.,24.0,0.,24.0,0.,24.0
1979-07-15 07:18:56.130 ,7,0,0.,24.0,0.,24.0,0.,24.0,0.,24.0
1979-07-15 07:19:20.130 ,6,1,0.,24.0,0.,24.0,0.,24.0,0.,24.0
1979-07-15 07:19:44.130 ,6,0,0.,24.0,0.,24.0,0.,24.0,0.,24.0
1979-07-15 07:20:08.130 ,5,1,0.,24.0,0.,24.0,0.,24.0,0.,24.0
1979-07-15 07:20:32.130 ,5,0,0.,24.0,0.,24.0,0.,24.0,0.,24.0
1979-07-15 07:20:56.130 ,4,1,0.,24.0,0.,24.0,0.,24.0,0.,24.0
1979-07-15 07:21:20.130 ,4,0,0.,24.0,0.,24.0,0.,24.0,0.,24.0
1979-07-15 07:21:44.130 ,3,1,0.,24.0,0.,24.0,0.,24.0,0.,24.0
1979-07-15 07:22:08.130 ,3,0,0.,24.0,0.,24.0,0.,24.0,0.,24.0
1979-07-15 07:22:32.130 ,2,1,0.,24.0,0.,24.0,0.,24.0,0.,24.0
1979-07-15 07:22:56.130 ,2,0,0.,24.0,0.,24.0,0.,24.0,0.,24.0
1979-07-15 07:23:20.130 ,1,1,0.,24.0,0.,24.0,0.,24.0,0.,24.0
1979-07-15 07:23:44.130 ,1,0,0.,24.0,0.,24.0,0.,24.0,0.,24.0
1979-07-15 07:24:08.130 ,0,1,0.,24.0,0.,24.0,0.,24.0,0.,24.0
1979-07-15 07:24:32.130 ,0,0,0.,24.0,0.,24.0,0.,24.0,0.,24.0
1979-07-15 07:24:56.130 ,0,1,0.,24.0,0.,24.0,0.,24.0,0.,24.0
1979-07-15 07:25:20.130 ,0,0,0.,24.0,0.,24.0,0.,24.0,0.,24.0
1979-07-15 07:25:44.130 ,1,1,0.,24.0,0.,24.0,0.,24.0,0.,24.0
1979-07-15 07:26:08.130 ,1,0,0.,24.0,0.,24.0,0.,24.0,0.,24.0
1979-07-15 07:26:32.130 ,2,1,0.,24.0,0.,24.0,0.,24.0,0.,24.0
1979-07-15 07:26:56.130 ,2,0,0.,24.0,0.,24.0,0.,24.0,0.,24.0
1979-07-15 07:27:20.130 ,3,1,0.,24.0,0.,24.0,0.,24.0,0.,24.0
1979-07-15 07:27:44.130 ,3,0,0.,24.0,0.,24.0,0.,24.0,0.,24.0
1979-07-15 07:28:08.130 ,4,1,0.,24.0,0.,24.0,0.,24.0,0.,24.0
1979-07-15 07:28:32.130 ,4,0,0.,24.0,0.,24.0,0.,24.0,0.,24.0
1979-07-15 07:28:56.130 ,5,1,0.,24.0,0.,24.0,0.,24.0,0.,24.0
1979-07-15 07:29:20.130 ,5,0,0.,24.0,0.,24.0,0.,24.0,0.,24.0
1979-07-15 07:29:44.130 ,6,1,0.,24.0,0.,24.0,0.,24.0,0.,24.0
1979-07-15 07:30:08.130 ,6,0,0.,24.0,0.,24.0,0.,24.0,0.,24.0
1979-07-15 07:30:32.130 ,7,0,0.,24.0,0.,24.0,0.,24.0,0.,24.0
1979-07-15 07:30:56.130 ,7,0,0.,24.0,0.,24.0,0.,24.0,0.,24.0
1979-07-15 07:31:20.130 ,5,1,0.,24.0,0.,24.0,0.,24.0,0.,24.0
1979-07-15 07:31:44.130 ,1,1,0.,24.0,0.,24.0,0.,24.0,0.,24.0
1979-07-15 07:32:08.130 ,2,1,0.,24.0,0.,24.0,0.,24.0,0.,24.0
1979-07-15 07:32:32.130 ,6,1,0.,24.0,0.,24.0,0.,24.0,0.,24.0
1979-07-15 07:32:56.130 ,5,1,0.,24.0,0.,24.0,0.,24.0,0.,24.0
1979-07-15 07:33:20.130 ,1,1,0.,24.0,0.,24.0,0.,24.0,0.,24.0
1979-07-15 07:33:44.130 ,2,1,0.,24.0,0.,24.0,0.,24.0,0.,24.0
1979-07-15 07:34:08.130 ,6,1,0.,24.0,0.,24.0,0.,24.0,0.,24.0
1979-07-15 07:34:32.130 ,5,1,0.,24.0,0.,24.0,0.,24.0,0.,24.0
1979-07-15 07:34:56.130 ,1,1,0.,24.0,0.,24.0,0.,24.0,0.,24.0
1979-07-15 07:35:20.130 ,2,1,0.,24.0,0.,24.0,0.,24.0,0.,24.0
1979-07-15 07:35:44.130 ,6,1,0.,24.0,0.,24.0,0.,24.0,0.,24.0
1979-07-15 07:36:08.130 ,5,1,0.,24.0,0.,24.0,0.,24.0,0.,24.0
1979-07-15 07:36:32.130 ,1,1,0.,24.0,0.,24.0,0.,24.0,0.,24.0
1979-07-15 07:36:56.130 ,2,1,0.,24.0,0.,24.0,0.,24.0,0.,24.0
1979-07-15 07:37:20.130 ,6,1,0.,24.0,0.,24.0,0.,24.0,0.,24.0
1979-07-15 07:37:44.130 ,5,1,0.,24.0,0.,24.0,0.,24.0,0.,24.0
1979-07-15 07:38:08.130 ,1,1,0.,24.0,0.,24.0,0.,24.0,0.,24.0
1979-07-15 07:38:32.130 ,2,1,0.,24.0,0.,24.0,0.,24.0,0.,24.0
1979-07-15 07:38:56.130 ,6,1,0.,24.0,0.,24.0,0.,24.0,0.,24.0
1979-07-15 07:39:20.130 ,5,1,0.,24.0,0.,24.0,0.,24.0,0.,24.0
1979-07-15 07:39:44.130 ,1,1,0.,24.0,0.,24.0,0.,24.0,0.,24.0
1979-07-15 07:40:08.130 ,2,1,0.,24.0,0.,24.0,0.,24.0,0.,24.0
1979-07-15 07:40:32.130 ,6,1,0.,24.0,0.,24.0,0.,24.0,0.,24.0
1979-07-15 07:40:56.130 ,5,1,0.,24.0,0.,24.0,0.,24.0,0.,24.0
1979-07-15 07:41:20.130 ,1,1,0.,24.0,0.,24.0,0.,24.0,0.,24.0
1979-07-15 07:41:44.130 ,0,0,0.,24.0,0.,24.0,0.,24.0,0.,24.0
1979-07-15 07:42:08.130 ,0,0,0.,24.0,0.,24.0,0.,24.0,0.,24.0
1979-07-15 07:42:32.130 ,5,1,0.,24.0,0.,24.0,0.,24.0,0.,24.0
1979-07-15 07:42:56.130 ,5,0,0.,24.0,0.,24.0,0.,24.0,0.,24.0
1979-07-15 07:43:20.130 ,4,1,0.,24.0,0.,24.0,0.,24.0,0.,24.0
1979-07-15 07:43:44.130 ,4,0,0.,24.0,0.,24.0,0.,24.0,0.,24.0
1979-07-15 07:44:08.130 ,3,1,0.,24.0,0.,24.0,0.,24.0,0.,24.0
1979-07-15 07:44:32.130 ,3,0,0.,24.0,0.,24.0,0.,24.0,0.,24.0
1979-07-15 07:44:56.130 ,2,1,0.,24.0,0.,24.0,0.,24.0,0.,24.0
1979-07-15 07:45:20.130 ,2,0,0.,24.0,0.,24.0,0.,24.0,0.,24.0
1979-07-15 07:45:44.130 ,1,1,0.,24.0,0.,24.0,0.,24.0,0.,24.0
1979-07-15 07:46:08.130 ,1,0,0.,24.0,0.,24.0,0.,24.0,0.,24.0
1979-07-15 07:46:32.130 ,0,1,0.,24.0,0.,24.0,0.,24.0,0.,24.0
1979-07-15 07:46:56.130 ,0,0,0.,24.0,0.,24.0,0.,24.0,0.,24.0
1979-07-15 07:47:20.130 ,0,1,0.,24.0,0.,24.0,0.,24.0,0.,24.0
1979-07-15 07:47:44.130 ,0,0,0.,24.0,0.,24.0,0.,24.0,0.,24.0
1979-07-15 07:48:08.130 ,1,1,0.,24.0,0.,24.0,0.,24.0,0.,24.0
1979-07-15 07:48:32.130 ,1,0,0.,24.0,0.,24.0,0.,24.0,0.,24.0
1979-07-15 07:48:56.130 ,2,1,0.,24.0,0.,24.0,0.,24.0,0.,24.0
1979-07-15 07:49:20.130 ,2,0,0.,24.0,0.,24.0,0.,24.0,0.,24.0
1979-07-15 07:49:44.130 ,3,1,0.,24.0,0.,24.0,0.,24.0,0.,24.0
1979-07-15 07:50:08.130 ,3,0,0.,24.0,0.,24.0,0.,24.0,0.,24.0
1979-07-15 07:50:32.130 ,4,1,0.,24.0,0.,24.0,0.,24.0,0.,24.0
1979-07-15 07:50:56.130 ,4,0,0.,24.0,0.,24.0,0.,24.0,0.,24.0
1979-07-15 07:51:20.130 ,5,1,0.,24.0,0.,24.0,0.,24.0,0.,24.0
1979-07-15 07:51:44.130 ,5,0,0.,24.0,0.,24.0,0.,24.0,0.,24.0
1979-07-15 07:52:08.130 ,6,1,0.,24.0,0.,24.0,0.,24.0,0.,24.0
1979-07-15 07:52:32.130 ,6,0,0.,24.0,0.,24.0,0.,24.0,0.,24.0
1979-07-15 07:52:56.130 ,7,1,0.,24.0,0.,24.0,0.,24.0,0.,24.0
1979-07-15 07:53:20.130 ,7,0,0.,24.0,0.,24.0,0.,24.0,0.,24.0
1979-07-15 07:53:44.130 ,7,1,0.,24.0,0.,24.0,0.,24.0,0.,24.0
1979-07-15 07:54:08.130 ,7,0,0.,24.0,0.,24.0,0.,24.0,0.,24.0
1979-07-15 07:54:32.130 ,6,1,0.,24.0,0.,24.0,0.,24.0,0.,24.0
1979-07-15 07:54:56.130 ,6,0,0.,24.0,0.,24.0,0.,24.0,0.,24.0
1979-07-15 07:55:20.130 ,5,1,0.,24.0,0.,24.0,0.,24.0,0.,24.0
1979-07-15 07:55:44.130 ,5,0,0.,24.0,0.,24.0,0.,24.0,0.,24.0
1979-07-15 07:56:08.130 ,4,1,0.,24.0,0.,24.0,0.,24.0,0.,24.0
1979-07-15 07:56:32.130 ,4,0,0.,24.0,0.,24.0,0.,24.0,0.,24.0
1979-07-15 07:56:56.130 ,3,1,0.,24.0,0.,24.0,0.,24.0,0.,24.0
1979-07-15 07:57:20.130 ,3,0,0.,24.0,0.,24.0,0.,24.0,0.,24.0
1979-07-15 07:57:44.130 ,2,1,0.,24.0,0.,24.0,0.,24.0,0.,24.0
1979-07-15 07:58:08.130 ,2,0,0.,24.0,0.,24.0,0.,24.0,0.,24.0
1979-07-15 07:58:32.130 ,1,1,0.,24.0,0.,24.0,0.,24.0,0.,24.0
1979-07-15 07:58:56.130 ,1,0,0.,24.0,0.,24.0,0.,24.0,0.,24.0
1979-07-15 07:59:20.130 ,0,1,0.,24.0,0.,24.0,0.,24.0,0.,24.0
1979-07-15 07:59:44.130 ,0,0,0.,24.0,0.,24.0,0.,24.0,0.,24.0
1979-07-15 08:00:08.130 ,0,1,0.,24.0,0.,24.0,0.,24.0,0.,24.0
1979-07-15 08:00:32.130 ,0,0,0.,24.0,0.,24.0,0.,24.0,0.,24.0
1979-07-15 08:00:56.130 ,1,1,0.,24.0,0.,24.0,0.,24.0,0.,24.0
1979-07-15 08:01:20.130 ,1,0,0.,24.0,0.,24.0,0.,24.0,0.,24.0
1979-07-15 08:01:44.130 ,2,1,0.,24.0,0.,24.0,0.,24.0,0.,24.0
1979-07-15 08:02:08.130 ,2,0,0.,24.0,0.,24.0,0.,24.0,0.,24.0
1979-07-15 08:02:32.130 ,3,1,0.,24.0,0.,24.0,0.,24.0,0.,24.0
1979-07-15 08:02:56.130 ,3,0,0.,24.0,0.,24.0,0.,24.0,0.,24.0
1979-07-15 08:03:20.130 ,4,1,0.,24.0,0.,24.0,0.,24.0,0.,24.0
1979-07-15 08:03:44.130 ,4,0,0.,24.0,0.,24.0,0.,24.0,0.,24.0
1979-07-15 08:04:08.130 ,5,1,0.,24.0,0.,24.0,0.,24.0,0.,24.0
1979-07-15 08:04:32.130 ,5,0,0.,24.0,0.,24.0,0.,24.0,0.,24.0
1979-07-15 08:04:56.130 ,6,1,0.,24.0,0.,24.0,0.,24.0,0.,24.0
1979-07-15 08:05:20.130 ,6,0,0.,24.0,0.,24.0,0.,24.0,0.,24.0
1979-07-15 08:05:44.130 ,7,1,0.,24.0,0.,24.0,0.,24.0,0.,24.0
1979-07-15 08:06:08.130 ,7,0,0.,24.0,0.,24.0,0.,24.0,0.,24.0
1979-07-15 08:06:32.130 ,7,1,0.,24.0,0.,24.0,0.,24.0,0.,24.0
1979-07-15 08:06:56.130 ,7,0,0.,24.0,0.,24.0,0.,24.0,0.,24.0
1979-07-15 08:07:20.130 ,6,1,0.,24.0,0.,24.0,0.,24.0,0.,24.0
1979-07-15 08:07:44.130 ,6,0,0.,24.0,0.,24.0,0.,24.0,0.,24.0
1979-07-15 08:08:08.130 ,5,1,0.,24.0,0.,24.0,0.,24.0,0.,24.0
1979-07-15 08:08:32.130 ,5,0,0.,24.0,0.,24.0,0.,24.0,0.,24.0
1979-07-15 08:08:56.130 ,4,1,0.,24.0,0.,24.0,0.,24.0,0.,24.0
1979-07-15 08:09:20.130 ,4,0,0.,24.0,0.,24.0,0.,24.0,0.,24.0
1979-07-15 08:09:44.130 ,3,1,0.,24.0,0.,24.0,0.,24.0,0.,24.0
1979-07-15 08:10:08.130 ,3,0,0.,24.0,0.,24.0,0.,24.0,0.,24.0
1979-07-15 08:10:32.130 ,2,1,0.,24.0,0.,24.0,0.,24.0,0.,24.0
1979-07-15 08:10:56.130 ,2,0,0.,24.0,0.,24.0,0.,24.0,0.,24.0
1979-07-15 08:11:20.130 ,1,1,0.,24.0,0.,24.0,0.,24.0,0.,24.0
1979-07-15 08:11:44.130 ,1,0,0.,24.0,0.,24.0,0.,24.0,0.,24.0
1979-07-15 08:12:08.130 ,0,1,0.,24.0,0.,24.0,0.,24.0,0.,24.0
1979-07-15 08:12:32.130 ,0,0,0.,24.0,0.,24.0,0.,24.0,0.,24.0
1979-07-15 08:12:56.130 ,0,1,0.,24.0,0.,24.0,0.,24.0,0.,24.0
1979-07-15 08:13:20.130 ,0,0,0.,24.0,0.,24.0,0.,24.0,0.,24.0
1979-07-15 08:13:44.130 ,1,1,0.,24.0,0.,24.0,0.,24.0,0.,24.0
1979-07-15 08:14:08.130 ,1,0,0.,24.0,0.,24.0,0.,24.0,0.,24.0
1979-07-15 08:14:32.130 ,2,1,0.,24.0,0.,24.0,0.,24.0,0.,24.0
1979-07-15 08:14:56.130 ,2,0,0.,24.0,0.,24.0,0.,24.0,0.,24.0
1979-07-15 08:15:20.130 ,3,1,0.,24.0,0.,24.0,0.,24.0,0.,24.0
1979-07-15 08:15:44.130 ,3,0,0.,24.0,0.,24.0,0.,24.0,0.,24.0
1979-07-15 08:16:08.130 ,4,1,0.,24.0,0.,24.0,0.,24.0,0.,24.0
1979-07-15 08:16:32.130 ,4,0,0.,24.0,0.,24.0,0.,24.0,0.,24.0
1979-07-15 08:16:56.130 ,5,1,0.,24.0,0.,24.0,0.,24.0,0.,24.0
1979-07-15 08:17:20.130 ,5,0,0.,24.0,0.,24.0,0.,24.0,0.,24.0
1979-07-15 08:17:44.130 ,6,1,0.,24.0,0.,24.0,0.,24.0,0.,24.0
1979-07-15 08:18:08.130 ,6,0,0.,24.0,0.,24.0,0.,24.0,0.,24.0
1979-07-15 08:18:32.130 ,7,0,0.,24.0,0.,24.0,0.,24.0,0.,24.0
1979-07-15 08:18:56.130 ,7,0,0.,24.0,0.,24.0,0.,24.0,0.,24.0
1979-07-15 08:19:20.130 ,5,1,0.,24.0,0.,24.0,0.,24.0,0.,24.0
1979-07-15 08:19:44.130 ,1,1,0.,24.0,0.,24.0,0.,24.0,0.,24.0
1979-07-15 08:20:08.130 ,2,1,0.,24.0,0.,24.0,0.,24.0,0.,24.0
1979-07-15 08:20:32.130 ,6,1,0.,24.0,0.,24.0,0.,24.0,0.,24.0
1979-07-15 08:20:56.130 ,5,1,0.,24.0,0.,24.0,0.,24.0,0.,24.0
1979-07-15 08:21:20.130 ,1,1,0.,24.0,0.,24.0,0.,24.0,0.,24.0
1979-07-15 08:21:44.130 ,2,1,0.,24.0,0.,24.0,0.,24.0,0.,24.0
1979-07-15 08:22:08.130 ,6,1,0.,24.0,0.,24.0,0.,24.0,0.,24.0
1979-07-15 08:22:32.130 ,5,1,0.,24.0,0.,24.0,0.,24.0,0.,24.0
1979-07-15 08:22:56.130 ,1,1,0.,24.0,0.,24.0,0.,24.0,0.,24.0
1979-07-15 08:23:20.130 ,2,1,0.,24.0,0.,24.0,0.,24.0,0.,24.0
1979-07-15 08:23:44.130 ,6,1,0.,24.0,0.,24.0,0.,24.0,0.,24.0
1979-07-15 08:24:08.130 ,5,1,0.,24.0,0.,24.0,0.,24.0,0.,24.0
1979-07-15 08:24:32.130 ,1,1,0.,24.0,0.,24.0,0.,24.0,0.,24.0
1979-07-15 08:24:56.130 ,2,1,0.,24.0,0.,24.0,0.,24.0,0.,24.0
1979-07-15 08:25:20.130 ,6,1,0.,24.0,0.,24.0,0.,24.0,0.,24.0
1979-07-15 08:25:44.130 ,5,1,0.,24.0,0.,24.0,0.,24.0,0.,24.0
1979-07-15 08:26:08.130 ,1,1,0.,24.0,0.,24.0,0.,24.0,0.,24.0
1979-07-15 08:26:32.130 ,2,1,0.,24.0,0.,24.0,0.,24.0,0.,24.0
1979-07-15 08:26:56.130 ,6,1,0.,24.0,0.,24.0,0.,24.0,0.,24.0
1979-07-15 08:27:20.130 ,5,1,0.,24.0,0.,24.0,0.,24.0,0.,24.0
1979-07-15 08:27:44.130 ,1,1,0.,24.0,0.,24.0,0.,24.0,0.,24.0
1979-07-15 08:28:08.130 ,2,1,0.,24.0,0.,24.0,0.,24.0,0.,24.0
1979-07-15 08:28:32.130 ,6,1,0.,24.0,0.,24.0,0.,24.0,0.,24.0
1979-07-15 08:28:56.130 ,5,1,0.,24.0,0.,24.0,0.,24.0,0.,24.0
1979-07-15 08:29:20.130 ,1,1,0.,24.0,0.,24.0,0.,24.0,0.,24.0
1979-07-15 08:29:44.130 ,0,0,0.,24.0,0.,24.0,0.,24.0,0.,24.0
1979-07-15 08:30:08.130 ,0,0,0.,24.0,0.,24.0,0.,24.0,0.,24.0
1979-07-15 08:30:32.130 ,5,1,0.,24.0,0.,24.0,0.,24.0,0.,24.0
1979-07-15 08:30:56.130 ,5,0,0.,24.0,0.,24.0,0.,24.0,0.,24.0
1979-07-15 08:31:20.130 ,4,1,0.,24.0,0.,24.0,0.,24.0,0.,24.0
1979-07-15 08:31:44.130 ,4,0,0.,24.0,0.,24.0,0.,24.0,0.,24.0
1979-07-15 08:32:08.130 ,3,1,0.,24.0,0.,24.0,0.,24.0,0.,24.0
1979-07-15 08:32:32.130 ,3,0,0.,24.0,0.,24.0,0.,24.0,0.,24.0
1979-07-15 08:32:56.130 ,2,1,0.,24.0,0.,24.0,0.,24.0,0.,24.0
1979-07-15 08:33:20.130 ,2,0,0.,24.0,0.,24.0,0.,24.0,0.,24.0
1979-07-15 08:33:44.130 ,1,1,0.,24.0,0.,24.0,0.,24.0,0.,24.0
1979-07-15 08:34:08.130 ,1,0,0.,24.0,0.,24.0,0.,24.0,0.,24.0